Regional Weather Roundup
Issued by NWS

Home | Current Version | Previous Version | Graphics & Text | Print | Product List | Glossary On
Versions: 1 2 3 4 5 6 7 8 9 10 11 12 13 14 15 16 17 18 19 20 21 22 23 24 25 26 27
000
ASUS45 KSLC 272010
RWRUT

UTAH REGIONAL WEATHER ROUNDUP
NATIONAL WEATHER SERVICE SALT LAKE CITY UT
200 PM MDT FRI MAY 27 2016

UTZ001>011-023>025-272100-

NORTHERN UTAH

CITY           SKY/WX    TMP DP  RH WIND       PRES   REMARKS
BRIGHAM CITY     N/A     67  39  35 S8        29.93S
HILL AFB       MOSUNNY   66  39  36 SW13      29.95F
LOGAN          CLOUDY    59  43  55 NW18      29.94R
OGDEN          MOSUNNY   68  37  32 MISG      29.93F
PROVO AIRPORT  PTSUNNY   64  45  48 S18G26    29.98S
SALT LAKE CITY PTSUNNY   69  32  25 CALM      29.92F
VERNAL         CLOUDY    63  38  39 N24G31    29.94F
WENDOVER       MOSUNNY   72  34  25 S12       29.92F
HEBER CITY     PTSUNNY   63  34  34 SW10      29.96F
WEST JORDAN    PTSUNNY   64  39  39 CALM      29.96F

$$

UTZ012>022-026-027-272100-

SOUTHERN/CENTRAL UTAH

CITY           SKY/WX    TMP DP  RH WIND       PRES   REMARKS
BLANDING       PTSUNNY   66  30  26 SW8G16    30.00F
BRYCE CANYON   LGT RAIN  54  36  50 N14G29    30.07S
CEDAR CITY     PTSUNNY   65  31  28 S5        29.98F
DELTA          MOSUNNY   68  32  26 CALM      29.95F
HANKSVILLE     MOSUNNY   72  27  18 W9G20     29.90F
MILFORD        PTSUNNY   69  33  26 VRB7      29.95F
MOAB/CYNLANDS  SUNNY     73  31  21 W10G17    29.87F
PRICE          PTSUNNY   67  27  22 NW15G26   29.93S
ST GEORGE      MOCLDY    79  34  19 CALM      29.89F

$$

REGIONAL REPORTS     COLORADO/ARIZONA

CITY           SKY/WX    TMP DP  RH WIND       PRES   REMARKS
CRAIG, CO      LGT RAIN  58  37  45 W10       29.94F
GRAND JUNCTION LGT RAIN  68  34  28 N21G29    29.89S
RIFLE          CLOUDY    62  36  37 W20G26    29.91R
MONTROSE       CLOUDY    66  30  26 VRB5      29.93F
CORTEZ         LGT RAIN  68  31  25 NW14G22   29.93S
PAGE, AZ       PTSUNNY   76  30  18 MISG      29.90F
GRAND CANYON   CLOUDY    65  24  21 VRB7      30.05F
KINGMAN        MOSUNNY   80  27  14 VRB7      29.91F
FLAGSTAFF      PTSUNNY   60  27  28 VRB3      30.07F

$$

REGIONAL REPORTS    NEVADA/IDAHO/WYOMING

CITY           SKY/WX    TMP DP  RH WIND       PRES   REMARKS
LAS VEGAS, NV  MOSUNNY   85  30  13 VRB3      29.80F
ELY            PTSUNNY   63  29  27 SE6       30.01F
ELKO           MOSUNNY   67  34  29 W9        29.96F
POCATELLO, ID  MOSUNNY   67  40  37 W20G29    29.94F
BURLEY         SUNNY     64  38  38 NW14G23   29.93F
EVANSTON, WY   LGT RAIN  48  35  60 SE5G18    30.02S
ROCK SPRINGS   CLOUDY    57  32  38 NW10      29.95F
KEMMERER         N/A     57  30  35 W12G21    30.00F

$$




USA.gov is the U.S. government's official web portal to all federal, state and local government web resources and services.